This demonstration page uses our WeatherBlox Daily Observations layout. Learn more.

Left ArrowRight Arrow

Hourly Observations for December 17, 2019

Temp ( °F °C ) Dew Point ( °F °C ) Humidity (%) Winds ( mph kmh ) Pressure ( in mb ) Visibility ( mi km ) Precip ( " mm )
12:51 am 00:51 Clear 28 -2.2 21 -6.1 75 75 N N/A 30.30 1026 10 16 N/A
1:51 am 01:51 Clear 29 -1.7 21 -6.1 72 72 E 6 9 30.31 1027 10 16 N/A
2:51 am 02:51 Clear 30 -1.1 20 -6.7 66 66 N N/A 30.32 1027 10 16 N/A
3:51 am 03:51 Clear 29 -1.7 19 -7.2 66 66 N N/A 30.34 1027 10 16 N/A
4:51 am 04:51 Clear 30 -1.1 18 -7.8 61 61 NNE 3 6 30.35 1028 10 16 N/A
5:51 am 05:51 Clear 29 -1.7 17 -8.3 61 61 N N/A 30.37 1029 10 16 N/A
6:51 am 06:51 Clear 30 -1.1 16 -8.9 56 56 SSW 3 6 30.40 1030 10 16 N/A
7:51 am 07:51 Sunny 32 undefined 16 -8.9 52 52 E 3 6 30.43 1031 10 16 N/A
8:51 am 08:51 Sunny 37 2.8 16 -8.9 42 42 SE 12 19 30.45 1031 10 16 N/A
9:51 am 09:51 Sunny 43 6.1 11 -11.7 27 27 ESE 12 19 30.45 1031 10 16 N/A
10:51 am 10:51 Sunny 46 7.8 9 -12.8 22 22 E 16 26 30.44 1031 10 16 N/A
11:51 am 11:51 Sunny 46 7.8 11 -11.7 24 24 SSE 9 15 30.40 1030 10 16 N/A
12:51 pm 12:51 Sunny 48 8.9 12 -11.1 23 23 VRB 7 11 30.37 1029 10 16 N/A
1:51 pm 13:51 Sunny 49 9.4 13 -10.6 23 23 SSW 6 9 30.35 1028 10 16 N/A
2:51 pm 14:51 Sunny 52 11.1 8 -13.3 17 17 SE 14 22 30.32 1027 10 16 N/A
3:06 pm 15:06 Sunny 52 11.1 7 -13.9 16 16 SE 10 17 30.29 1026 10 16 N/A
3:51 pm 15:51 Sunny 51 10.6 9 -12.8 18 18 SE 13 20 30.31 1026 10 16 N/A
4:51 pm 16:51 Sunny 49 9.4 12 -11.1 22 22 SSE 10 17 30.31 1026 10 16 N/A
5:51 pm 17:51 Clear 45 7.2 16 -8.9 31 31 SE 8 13 30.32 1027 10 16 N/A
6:51 pm 18:51 Clear 41 5 18 -7.8 39 39 ESE 7 11 30.35 1028 10 16 N/A
7:51 pm 19:51 Clear 40 4.4 17 -8.3 40 40 SE 9 15 30.35 1028 10 16 N/A
8:51 pm 20:51 Clear 39 3.9 16 -8.9 39 39 SE 9 15 30.35 1028 10 16 N/A
9:51 pm 21:51 Clear 37 2.8 16 -8.9 42 42 ESE 10 17 30.35 1028 10 16 N/A
10:51 pm 22:51 Clear 38 3.3 14 -10 37 37 ESE 9 15 30.35 1028 10 16 N/A
11:51 pm 23:51 Clear 35 1.7 16 -8.9 46 46 SSE 7 11 30.35 1028 10 16 N/A

Powered by AerisWeather